Total_Precipitation_Accumulation
0.00 0.00 0.02 0.10 0.38 0.68 0.72 0.47 0.39 0.31 0.31 0.26 0.28 0.27 0.32 0.44 0.60 0.67 0.28 0.09 0.02 0.01 0.02 0.07 0.12 0.12 0.10 0.09 0.10 0.13 0.13 0.14 0.13 0.12 0.12 0.11 0.08 0.05 0.04 0.03 0.02 0.03 0.03 0.03 0.03 0.04 0.03 0.04 0.04
0.00 0.00 0.02 0.11 0.32 0.61 0.54 0.41 0.33 0.24 0.26 0.31 0.44 0.43 0.33 0.38 0.40 0.32 0.20 0.12 0.04 0.02 0.02 0.02 0.08 0.11 0.10 0.10 0.10 0.12 0.12 0.11 0.10 0.09 0.09 0.09 0.07 0.04 0.03 0.03 0.03 0.04 0.04 0.04 0.04 0.04 0.04 0.03 0.03
0.00 0.01 0.04 0.11 0.21 0.30 0.28 0.18 0.18 0.24 0.33 0.43 0.48 0.48 0.43 0.40 0.33 0.26 0.19 0.12 0.10 0.05 0.03 0.04 0.07 0.08 0.10 0.11 0.11 0.11 0.10 0.10 0.09 0.08 0.08 0.07 0.06 0.04 0.04 0.04 0.04 0.06 0.07 0.07 0.05 0.05 0.05 0.04 0.04
0.01 0.03 0.08 0.11 0.06 0.06 0.07 0.10 0.17 0.29 0.49 0.72 0.71 0.56 0.44 0.32 0.24 0.19 0.22 0.16 0.13 0.09 0.05 0.05 0.08 0.08 0.09 0.10 0.10 0.10 0.10 0.10 0.10 0.09 0.08 0.07 0.06 0.06 0.05 0.05 0.06 0.08 0.10 0.11 0.11 0.10 0.08 0.05 0.05
0.01 0.03 0.06 0.06 0.03 0.03 0.05 0.11 0.22 0.36 0.52 0.71 0.74 0.64 0.55 0.40 0.28 0.24 0.19 0.16 0.15 0.11 0.05 0.06 0.11 0.11 0.11 0.12 0.13 0.12 0.11 0.10 0.10 0.09 0.10 0.10 0.08 0.08 0.08 0.07 0.08 0.08 0.10 0.11 0.12 0.12 0.10 0.07 0.05
0.00 0.02 0.03 0.02 0.02 0.03 0.06 0.13 0.23 0.35 0.51 0.67 0.91 0.92 0.69 0.49 0.46 0.38 0.25 0.18 0.17 0.14 0.07 0.08 0.14 0.16 0.16 0.16 0.17 0.16 0.14 0.12 0.12 0.12 0.12 0.12 0.10 0.11 0.12 0.12 0.12 0.11 0.12 0.13 0.13 0.14 0.13 0.11 0.08
0.00 0.01 0.01 0.01 0.02 0.04 0.06 0.13 0.23 0.37 0.51 0.78 1.05 1.06 0.73 0.52 0.49 0.48 0.40 0.28 0.25 0.19 0.12 0.10 0.12 0.14 0.16 0.20 0.22 0.21 0.18 0.16 0.15 0.15 0.15 0.13 0.12 0.14 0.16 0.18 0.19 0.19 0.19 0.18 0.19 0.19 0.19 0.17 0.14
0.00 0.00 0.00 0.00 0.01 0.04 0.10 0.15 0.27 0.46 0.63 0.85 1.02 1.09 0.98 0.60 0.47 0.54 0.59 0.53 0.52 0.36 0.20 0.17 0.16 0.18 0.18 0.19 0.22 0.22 0.20 0.19 0.19 0.19 0.19 0.19 0.23 0.27 0.32 0.32 0.30 0.30 0.31 0.33 0.35 0.35 0.37 0.36 0.30
0.00 0.00 0.00 0.00 0.01 0.09 0.13 0.17 0.24 0.33 0.51 0.72 0.86 0.91 0.77 0.58 0.58 0.71 0.82 0.69 0.61 0.54 0.35 0.32 0.30 0.22 0.24 0.25 0.26 0.33 0.34 0.35 0.38 0.43 0.40 0.37 0.39 0.53 0.66 0.60 0.60 0.61 0.63 0.68 0.74 0.75 0.77 0.72 0.56
0.00 0.00 0.00 0.00 0.00 0.05 0.11 0.16 0.24 0.31 0.67 1.18 1.19 0.85 0.63 0.73 0.83 0.89 0.89 0.80 0.68 0.65 0.50 0.43 0.42 0.37 0.37 0.39 0.58 0.74 0.71 0.80 0.76 0.87 0.80 0.79 0.82 0.71 0.59 0.72 0.86 0.98 1.16 1.24 1.32 1.38 1.35 1.20 0.96
0.00 0.00 0.00 0.00 0.01 0.01 0.04 0.10 0.18 0.36 0.80 1.41 1.57 1.18 0.98 1.01 1.20 1.09 1.02 0.98 0.95 0.86 0.80 0.55 0.55 0.51 0.57 0.66 0.85 0.99 1.03 1.09 1.05 1.10 1.14 1.23 1.22 1.03 0.91 1.08 1.33 1.47 1.62 1.69 1.94 1.99 1.62 1.57 1.58
0.00 0.00 0.00 0.00 0.01 0.01 0.08 0.15 0.23 0.29 0.71 1.05 1.02 0.90 1.01 1.15 1.26 1.33 1.27 1.30 1.16 1.08 1.09 0.95 0.95 0.88 0.87 0.91 0.94 0.99 0.95 0.98 1.06 1.16 1.26 1.40 1.38 1.38 1.36 1.41 1.50 1.65 1.85 2.06 2.15 2.16 2.03 2.14 2.13
0.00 0.00 0.00 0.01 0.03 0.04 0.09 0.13 0.22 0.35 0.48 0.61 0.57 0.73 1.12 1.31 1.46 1.64 1.71 1.76 1.70 1.62 1.57 1.47 1.43 1.26 1.09 0.95 0.88 0.82 0.80 0.78 0.87 0.95 1.01 1.10 1.31 1.45 1.46 1.32 1.32 1.36 1.59 1.91 2.21 2.25 2.46 2.56 2.38
0.00 0.00 0.01 0.03 0.03 0.05 0.07 0.09 0.19 0.38 0.44 0.56 0.71 0.88 1.21 1.56 1.79 1.98 2.41 2.61 2.74 2.49 2.19 2.04 1.88 1.52 1.33 1.15 0.97 0.86 0.75 0.75 0.77 0.77 0.84 0.99 1.12 1.28 1.25 1.23 1.29 1.33 1.35 1.49 1.88 2.12 2.33 2.26 2.04
0.00 0.02 0.05 0.06 0.04 0.05 0.06 0.16 0.34 0.48 0.68 0.71 0.88 1.08 1.37 1.81 2.17 2.56 2.88 3.38 3.70 3.54 2.90 2.35 2.07 1.80 1.54 1.36 1.15 0.97 0.82 0.75 0.74 0.69 0.74 0.82 0.88 0.98 1.02 1.03 1.02 1.08 1.10 1.14 1.28 1.49 1.66 1.60 1.49
0.01 0.08 0.17 0.10 0.06 0.07 0.10 0.41 0.61 0.52 0.82 1.15 1.07 1.34 1.70 2.07 2.39 2.94 3.48 4.07 4.51 4.43 3.64 2.79 2.24 2.17 1.99 1.71 1.25 0.96 0.80 0.66 0.57 0.53 0.53 0.55 0.57 0.59 0.62 0.63 0.61 0.64 0.64 0.68 0.79 0.90 1.00 1.09 1.17
0.03 0.07 0.15 0.17 0.11 0.10 0.18 0.58 0.74 0.53 0.66 0.96 1.19 1.42 1.82 2.09 2.26 2.73 3.25 3.94 4.43 4.75 4.32 3.39 3.06 2.89 2.24 1.55 1.03 0.77 0.62 0.48 0.41 0.42 0.38 0.38 0.40 0.41 0.45 0.45 0.43 0.41 0.40 0.41 0.43 0.53 0.63 0.72 0.80
0.02 0.04 0.09 0.21 0.16 0.17 0.25 0.44 0.70 0.71 0.87 1.09 1.23 1.37 1.62 1.72 1.83 2.24 2.67 3.01 3.45 3.75 3.45 3.00 2.83 2.33 1.60 1.04 0.71 0.48 0.39 0.31 0.27 0.28 0.28 0.29 0.31 0.33 0.37 0.36 0.34 0.31 0.29 0.31 0.36 0.41 0.44 0.44 0.48
0.02 0.04 0.08 0.15 0.16 0.23 0.35 0.47 0.65 0.81 1.02 1.18 1.20 1.18 1.20 1.30 1.52 1.71 1.94 2.19 2.26 2.22 2.10 1.98 1.79 1.47 0.98 0.68 0.43 0.29 0.23 0.19 0.17 0.18 0.17 0.20 0.23 0.29 0.35 0.30 0.33 0.30 0.25 0.25 0.27 0.31 0.31 0.29 0.29
0.03 0.06 0.11 0.14 0.14 0.19 0.34 0.60 0.73 0.81 0.83 0.91 0.99 0.96 0.93 1.00 1.08 1.11 1.23 1.49 1.43 1.41 1.41 1.34 1.21 0.93 0.60 0.44 0.32 0.26 0.20 0.13 0.10 0.09 0.10 0.10 0.12 0.17 0.24 0.31 0.25 0.26 0.26 0.26 0.25 0.27 0.25 0.22 0.25
0.04 0.05 0.06 0.10 0.11 0.19 0.34 0.83 0.90 0.76 0.67 0.60 0.71 0.75 0.69 0.70 0.68 0.64 0.72 0.83 1.02 1.25 1.14 0.96 0.89 0.70 0.48 0.34 0.26 0.21 0.18 0.15 0.12 0.09 0.08 0.08 0.07 0.09 0.14 0.21 0.24 0.27 0.25 0.28 0.33 0.30 0.27 0.21 0.19
0.04 0.03 0.02 0.02 0.07 0.30 0.42 0.85 0.91 0.74 0.72 0.54 0.51 0.52 0.42 0.34 0.37 0.43 0.45 0.50 0.67 0.82 0.82 0.78 0.74 0.64 0.43 0.31 0.21 0.16 0.14 0.12 0.10 0.08 0.07 0.07 0.06 0.07 0.08 0.10 0.15 0.22 0.26 0.34 0.26 0.29 0.30 0.26 0.19
0.01 0.01 0.01 0.03 0.10 0.27 0.39 0.71 0.90 0.69 0.74 0.51 0.33 0.22 0.15 0.12 0.16 0.25 0.30 0.35 0.39 0.44 0.55 0.62 0.72 0.70 0.48 0.34 0.23 0.19 0.15 0.12 0.09 0.08 0.09 0.09 0.10 0.11 0.12 0.12 0.11 0.12 0.19 0.26 0.29 0.35 0.32 0.32 0.27
0.01 0.02 0.08 0.17 0.29 0.60 0.58 0.57 0.84 0.59 0.40 0.22 0.14 0.08 0.06 0.06 0.09 0.15 0.19 0.23 0.29 0.33 0.37 0.44 0.56 0.63 0.50 0.37 0.28 0.26 0.24 0.20 0.17 0.14 0.14 0.15 0.18 0.20 0.19 0.20 0.20 0.20 0.18 0.17 0.19 0.24 0.30 0.35 0.36
0.02 0.03 0.16 0.37 0.61 0.79 0.45 0.57 0.90 0.44 0.23 0.11 0.07 0.05 0.04 0.04 0.05 0.08 0.11 0.13 0.20 0.24 0.24 0.25 0.35 0.42 0.36 0.29 0.26 0.26 0.33 0.37 0.36 0.30 0.25 0.22 0.21 0.23 0.23 0.23 0.24 0.27 0.28 0.25 0.20 0.16 0.20 0.28 0.33
0.02 0.02 0.06 0.11 0.20 0.33 0.37 0.96 0.80 0.23 0.12 0.07 0.04 0.03 0.03 0.03 0.02 0.03 0.05 0.09 0.13 0.15 0.17 0.18 0.25 0.29 0.25 0.20 0.20 0.18 0.20 0.24 0.31 0.37 0.33 0.32 0.33 0.28 0.23 0.22 0.22 0.26 0.30 0.31 0.28 0.22 0.20 0.22 0.26
0.02 0.02 0.03 0.04 0.05 0.21 0.49 0.69 0.39 0.10 0.06 0.05 0.03 0.03 0.02 0.02 0.01 0.01 0.02 0.05 0.07 0.07 0.11 0.12 0.18 0.22 0.19 0.16 0.14 0.11 0.10 0.10 0.13 0.16 0.17 0.22 0.32 0.32 0.24 0.20 0.19 0.22 0.25 0.30 0.31 0.30 0.29 0.27 0.24
0.03 0.02 0.02 0.02 0.05 0.15 0.36 0.58 0.54 0.20 0.09 0.06 0.04 0.02 0.02 0.01 0.01 0.01 0.01 0.03 0.05 0.06 0.09 0.12 0.15 0.16 0.15 0.14 0.11 0.08 0.10 0.09 0.10 0.09 0.07 0.08 0.12 0.16 0.16 0.16 0.16 0.17 0.19 0.23 0.29 0.34 0.40 0.42 0.38
0.04 0.03 0.03 0.03 0.04 0.08 0.23 0.35 0.35 0.19 0.11 0.07 0.04 0.03 0.05 0.04 0.02 0.02 0.02 0.03 0.03 0.05 0.08 0.10 0.13 0.13 0.10 0.10 0.11 0.09 0.09 0.08 0.09 0.08 0.06 0.06 0.06 0.06 0.06 0.08 0.10 0.11 0.12 0.16 0.21 0.27 0.38 0.52 0.59
0.05 0.06 0.05 0.05 0.05 0.06 0.09 0.15 0.14 0.12 0.12 0.11 0.07 0.04 0.05 0.05 0.03 0.03 0.03 0.03 0.03 0.06 0.09 0.10 0.11 0.11 0.09 0.10 0.12 0.11 0.12 0.12 0.11 0.10 0.08 0.09 0.08 0.07 0.07 0.08 0.09 0.08 0.07 0.09 0.13 0.19 0.26 0.37 0.53